Flag for Norway Weather past 2 weeks in Arendal, Norway

Now
41 °F

Quite cool.


Feels Like: 38 °F
Forecast: 31 / 44 °F
Wind: 6 mph from Northwest

Location: Torungen Fyr

Current Time: Mar 27, 2015 at 8:13:15 PM

Latest Report: Mar 27, 2015 at 7:00 PM


Visibility: N/A

Pressure: 29.87 "Hg

Humidity: 69%

Dew point: 32 °F

Location of ArendalLocation

Historic Weather in Arendal — Graph

°F

Arendal temperature yesterday

Maximum temperature yesterday: 38 °F (at 1:00 PM)
Minimum temperature yesterday: 33 °F (at 6:00 AM)
Average temperature yesterday: 35 °F

Past Weeks' High & Low Weather Summary

 TemperatureHumidityPressure
High45 °F (Mar 24, 1:00 PM)100% (Mar 26, 12:00 PM)30.79 "Hg (Mar 26, 12:00 PM)
Low31 °F (Mar 22, 12:00 AM)46% (Mar 21, 8:00 PM)29.59 "Hg (Mar 26, 11:00 AM)
Average39 °F83%30.28 "Hg
* Reported Mar 12 6:00 PM — Mar 27 6:00 PM, Arendal, Weather by CustomWeather, © 2015

Note: Actual official high and low records may vary slightly from our data, if they occured in-between our weather recording intervals... More about our weather records

Advertising

Arendal weather history for previous 24 hours

 ConditionsComfort  
Time TempWeatherWind HumidityBarometerVisibility
6:00 PM
Fri, Mar 27
44 °FQuite cool.8 mph64%29.85 "HgN/A
5:00 PM45 °FQuite cool.8 mph64%29.83 "HgN/A
4:00 PM45 °FQuite cool.8 mph65%29.82 "HgN/A
3:00 PM45 °FCool.6 mph69%29.82 "HgN/A
2:00 PM42 °FQuite cool.5 mph86%29.82 "HgN/A
1:00 PM41 °FQuite cool.6 mph88%29.82 "HgN/A
12:00 PM40 °FChilly.6 mph90%29.82 "HgN/A
11:00 AM38 °FChilly.3 mph91%29.82 "HgN/A
10:00 AM36 °FChilly.3 mph95%29.82 "HgN/A
9:00 AM35 °FChilly.1 mph98%29.81 "HgN/A
8:00 AM33 °FChilly.2 mph98%29.80 "HgN/A
7:00 AM33 °FChilly.2 mph98%29.79 "HgN/A
6:00 AM34 °FChilly.2 mph97%29.78 "HgN/A
5:00 AM35 °FChilly.2 mph97%29.76 "HgN/A
3:00 AM35 °FChilly.5 mph97%29.75 "HgN/A
2:00 AM35 °FChilly.3 mph97%29.75 "HgN/A
1:00 AM35 °FChilly.3 mph97%29.74 "HgN/A
12:00 AM35 °FChilly.5 mph97%29.73 "HgN/A
11:00 PM
Thu, Mar 26
35 °FChilly.5 mph98%29.72 "HgN/A
9:00 PM35 °FChilly.5 mph98%29.69 "HgN/A
8:00 PM35 °FChilly.5 mph98%29.68 "HgN/A
Weather by CustomWeather, © 2015

See weather overviewHow to use our weather pages